Date String (YYYY-MM-DD hh:mm:ss) UTC,Instrument flags,Ambient pressure (hPa),Sample flow (lpm),Bypass flow (lpm),Sample temperature (°C),Ambient temperature (°C),ASC tube jacket temperature (°C),LED temperature (°C),Box temperature (°C),Sample RH (%),Span deviation,Mass concentration (μg/m³),Mass concentration (μg/m³),Mass concentration (μg/m³)
DateTimeUTC,F1_M11,P_M11,Q1_M11,Q2_M11,T1_M11,T2_M11,T3_M11,T4_M11,T5_M11,U1_M11,ZSPAN_M11,X0_M11,X2_M11,X1_M11
2022-08-15 15:00:00,,0829.3,5.00,0.00,31.0,28.9,00.0,39.2,32.1,33.9,0000.0,0009.14,0003.93,0003.28
2022-08-15 15:01:00,,0829.4,5.00,0.00,31.1,29.0,00.0,39.2,32.2,33.6,0000.0,0009.39,0004.00,0003.30
2022-08-15 15:02:00,,0829.4,4.99,0.00,31.1,29.1,00.0,39.3,32.2,32.9,0000.0,0010.12,0004.06,0003.32
2022-08-15 15:03:00,,0829.2,5.01,0.00,31.1,28.7,00.0,39.2,32.1,33.4,0000.0,0010.35,0004.10,0003.33
2022-08-15 15:04:00,,0829.2,4.99,0.00,31.0,28.0,00.0,39.2,31.9,33.8,0000.0,0010.08,0004.12,0003.33
2022-08-15 15:05:00,,0829.3,5.00,0.00,30.9,27.7,00.0,39.2,31.9,34.4,0000.0,0010.24,0004.17,0003.35
2022-08-15 15:06:00,,0829.2,4.99,0.00,30.8,27.7,00.0,39.2,31.7,34.3,0000.0,0010.51,0004.18,0003.35
2022-08-15 15:07:00,,0829.2,5.00,0.00,30.7,27.7,00.0,39.2,31.8,34.0,0000.0,0010.20,0004.14,0003.35
2022-08-15 15:08:00,,0829.2,4.99,0.00,30.6,27.9,00.0,39.2,31.7,34.3,0000.0,0009.56,0004.16,0003.36
2022-08-15 15:09:00,,0829.2,5.00,0.00,30.6,28.0,00.0,39.2,31.8,34.1,0000.0,0009.26,0004.14,0003.36
2022-08-15 15:10:00,,0829.2,5.00,0.00,30.6,28.2,00.0,39.2,31.8,33.9,0000.0,0009.24,0004.12,0003.35
2022-08-15 15:11:00,,0829.2,5.00,0.00,30.6,28.3,00.0,39.2,31.9,34.1,0000.0,0009.32,0004.16,0003.35
2022-08-15 15:12:00,,0829.2,4.99,0.00,30.6,28.5,00.0,39.2,31.9,34.2,0000.0,0009.33,0004.17,0003.34
2022-08-15 15:13:00,,0829.2,5.00,0.00,30.6,28.6,00.0,39.2,32.0,34.0,0000.0,0009.62,0004.17,0003.33
2022-08-15 15:14:00,,0829.3,5.01,0.00,30.6,28.7,00.0,39.2,32.0,34.0,0000.0,0009.57,0004.17,0003.33
2022-08-15 15:15:00,,0829.3,5.00,0.00,30.6,28.8,00.0,39.2,32.0,33.7,0000.0,0009.68,0004.19,0003.34
2022-08-15 15:16:00,,0829.4,4.99,0.00,30.6,28.9,00.0,39.2,32.0,33.3,0000.0,0009.61,0004.14,0003.32
2022-08-15 15:17:00,,0829.3,5.00,0.00,30.6,29.0,00.0,39.2,32.1,32.8,0000.0,0009.08,0004.08,0003.29
2022-08-15 15:18:00,,0829.4,5.00,0.00,30.6,29.0,00.0,39.2,32.1,32.7,0000.0,0008.94,0004.02,0003.25
2022-08-15 15:19:00,,0829.4,5.00,0.00,30.6,28.7,00.0,39.1,32.0,32.8,0000.0,0008.73,0003.93,0003.22
2022-08-15 15:20:00,,0829.4,5.01,0.00,30.5,27.9,00.0,39.1,31.8,32.9,0000.0,0008.49,0003.90,0003.20
2022-08-15 15:21:00,,0829.4,5.01,0.00,30.4,27.6,00.0,39.0,31.7,32.5,0000.0,0008.34,0003.87,0003.19
2022-08-15 15:22:00,,0829.4,4.98,0.00,30.3,27.6,00.0,39.0,31.6,32.2,0000.0,0008.11,0003.77,0003.16
2022-08-15 15:23:00,,0829.4,5.01,0.00,30.2,27.6,00.0,39.0,31.6,32.3,0000.0,0007.84,0003.64,0003.12
2022-08-15 15:24:00,,0829.3,5.00,0.00,30.2,27.8,00.0,39.0,31.6,32.8,0000.0,0006.68,0003.54,0003.07
2022-08-15 15:25:00,,0829.3,5.01,0.00,30.2,27.9,00.0,38.9,31.7,33.5,0000.0,0005.64,0003.46,0003.03
2022-08-15 15:26:00,,0829.2,4.99,0.00,30.2,28.1,00.0,38.9,31.7,33.9,0000.0,0005.51,0003.40,0002.99
2022-08-15 15:27:00,,0829.4,4.99,0.00,30.1,28.3,00.0,38.9,31.7,34.1,0000.0,0005.22,0003.36,0002.95
2022-08-15 15:28:00,,0829.3,5.00,0.00,30.2,28.4,00.0,38.9,31.8,34.1,0000.0,0005.16,0003.34,0002.94
2022-08-15 15:29:00,,0829.3,5.01,0.00,30.2,28.5,00.0,38.9,31.8,33.7,0000.0,0005.06,0003.33,0002.95
2022-08-15 15:30:00,,0829.4,5.00,0.00,30.2,28.6,00.0,38.9,31.9,33.5,0000.0,0004.96,0003.32,0002.96
2022-08-15 15:31:00,,0829.4,5.00,0.00,30.2,28.7,00.0,38.9,31.9,33.2,0000.0,0004.74,0003.28,0002.97
2022-08-15 15:32:00,,0829.4,4.99,0.00,30.2,28.8,00.0,38.9,32.0,33.2,0000.0,0004.61,0003.25,0002.96
2022-08-15 15:33:00,,0829.5,5.00,0.00,30.2,28.9,00.0,38.9,32.0,33.4,0000.0,0004.63,0003.26,0002.98
2022-08-15 15:34:00,,0829.5,5.00,0.00,30.3,28.9,00.0,38.9,32.0,33.5,0000.0,0004.79,0003.29,0003.02
2022-08-15 15:35:00,,0829.4,5.01,0.00,30.2,28.5,00.0,38.9,31.9,33.4,0000.0,0005.04,0003.35,0003.05
2022-08-15 15:36:00,,0829.5,4.99,0.00,30.2,27.8,00.0,38.8,31.7,33.3,0000.0,0005.23,0003.40,0003.07
2022-08-15 15:37:00,,0829.5,5.00,0.00,30.1,27.5,00.0,38.8,31.6,34.2,0000.0,0005.12,0003.41,0003.07
2022-08-15 15:38:00,,0829.5,5.01,0.00,30.0,27.4,00.0,38.8,31.5,35.2,0000.0,0005.19,0003.44,0003.10
2022-08-15 15:39:00,,0829.5,5.00,0.00,30.2,27.5,00.0,38.8,31.6,34.8,0000.0,0005.24,0003.46,0003.12
2022-08-15 15:40:00,,0829.4,4.99,0.00,30.3,27.7,00.0,38.7,31.6,34.3,0000.0,0005.38,0003.49,0003.14
2022-08-15 15:41:00,,0829.5,5.01,0.00,30.3,27.8,00.0,38.7,31.7,34.1,0000.0,0005.50,0003.52,0003.15
2022-08-15 15:42:00,,0829.5,4.99,0.00,30.4,28.0,00.0,38.7,31.7,34.2,0000.0,0005.77,0003.55,0003.14
2022-08-15 15:43:00,,0829.4,5.01,0.00,30.4,28.1,00.0,38.8,31.7,33.9,0000.0,0005.99,0003.57,0003.13
2022-08-15 15:44:00,,0829.5,5.00,0.00,30.4,28.3,00.0,38.8,31.8,33.4,0000.0,0006.08,0003.57,0003.13
2022-08-15 15:45:00,,0829.4,5.00,0.00,30.4,28.4,00.0,38.8,31.8,33.2,0000.0,0006.00,0003.56,0003.11
2022-08-15 15:46:00,,0829.5,5.00,0.00,30.4,28.5,00.0,38.9,31.8,33.4,0000.0,0005.90,0003.53,0003.08
2022-08-15 15:47:00,,0829.4,5.00,0.00,30.4,28.7,00.0,38.9,31.9,33.2,0000.0,0006.59,0003.51,0003.08
2022-08-15 15:48:00,,0829.5,4.99,0.00,30.4,28.8,00.0,38.9,31.9,33.2,0000.0,0006.64,0003.52,0003.07
2022-08-15 15:49:00,,0829.5,5.00,0.00,30.4,28.8,00.0,38.9,31.9,33.0,0000.0,0006.47,0003.48,0003.04
2022-08-15 15:50:00,,0829.5,5.00,0.00,30.5,28.9,00.0,39.0,32.0,33.7,0000.0,0006.36,0003.46,0003.03
2022-08-15 15:51:00,,0829.5,5.00,0.00,30.5,29.0,00.0,39.0,32.0,34.2,0000.0,0006.64,0003.50,0003.04
2022-08-15 15:52:00,,0829.5,5.00,0.00,30.5,28.6,00.0,39.0,31.9,33.9,0000.0,0006.91,0003.55,0003.06
2022-08-15 15:53:00,,0829.5,4.99,0.00,30.4,27.9,00.0,38.9,31.7,34.4,0000.0,0007.63,0003.57,0003.10
2022-08-15 15:54:00,,0829.5,5.00,0.00,30.3,27.5,00.0,38.9,31.7,34.7,0000.0,0007.63,0003.61,0003.13
2022-08-15 15:55:00,,0829.5,5.00,0.00,30.2,27.4,00.0,38.9,31.6,34.6,0000.0,0007.65,0003.64,0003.15
2022-08-15 15:56:00,,0829.5,4.99,0.00,30.2,27.5,00.0,38.8,31.5,34.5,0000.0,0007.67,0003.65,0003.17
2022-08-15 15:57:00,,0829.5,5.00,0.00,30.1,27.7,00.0,38.8,31.5,34.4,0000.0,0008.33,0003.69,0003.19
2022-08-15 15:58:00,,0829.4,5.00,0.00,30.1,27.8,00.0,38.8,31.6,35.0,0000.0,0008.40,0003.68,0003.20
2022-08-15 15:59:00,,0829.4,5.00,0.00,30.2,28.0,00.0,38.8,31.7,34.8,0000.0,0008.19,0003.65,0003.20
